GEFSMW_850_meantemp_102.txt.gz
Temperature
18 18 19 19 19 19 19 18 18 18 18 18 18 18 17 17 17 17 17 16 16 16 16 16 16 15 15 15 15 15 15 15 15 15 15 16 16 16 16 16 16 16 16
18 18 18 18 19 18 18 18 18 18 18 18 18 17 17 17 17 16 16 16 16 16 15 15 15 15 15 15 14 14 14 14 14 14 14 14 15 16 16 16 16 16 16
19 18 19 19 18 18 18 18 18 18 18 18 17 17 17 17 16 16 16 16 16 15 15 15 15 15 14 14 14 14 14 14 14 13 13 13 14 14 15 15 15 15 15
19 19 19 18 18 18 18 18 18 18 18 17 17 17 17 17 16 16 16 15 15 15 15 15 14 14 14 14 13 13 13 13 13 13 13 13 13 13 14 14 15 15 15
19 19 19 19 19 19 18 18 18 18 17 17 17 17 16 16 16 15 15 15 15 15 14 14 14 14 13 13 13 13 13 13 12 12 13 13 13 13 13 13 14 14 14
20 20 19 19 19 19 18 18 18 18 17 17 17 16 16 16 15 15 15 15 14 14 14 14 13 13 13 13 12 12 12 12 12 12 12 12 12 12 12 12 13 13 14
20 20 19 19 19 19 19 18 18 17 17 17 16 16 16 15 15 15 14 14 14 14 13 13 13 13 12 12 12 12 12 11 11 11 11 11 11 12 12 12 12 12 13
20 20 20 20 20 19 19 18 18 17 17 16 16 16 15 15 15 14 14 14 13 13 13 13 12 12 12 12 12 11 11 11 11 11 11 11 11 11 11 11 11 11 12
21 21 20 20 20 19 19 19 18 18 17 16 16 15 15 15 14 14 14 13 13 13 12 12 12 12 12 11 11 11 11 11 11 11 11 11 11 11 11 11 11 11 11
21 21 21 20 20 20 19 19 18 18 17 16 16 16 15 15 14 14 14 13 13 12 12 12 12 12 11 11 11 11 11 11 11 11 11 11 11 11 11 11 11 11 11
21 21 21 21 20 20 19 19 18 18 17 17 16 16 15 15 14 14 13 13 13 12 12 12 12 11 11 11 11 11 11 10 10 10 10 10 10 10 10 10 10 10 10
22 22 21 20 20 20 19 19 18 18 17 17 16 16 15 15 14 14 13 13 13 12 12 12 11 11 11 11 11 11 10 10 10 10 10 10 10 10 10 10 10 10 10
22 21 21 21 20 20 19 19 18 18 18 17 16 16 15 15 14 14 13 13 13 12 12 12 11 11 11 11 11 10 10 10 10 10 10 10 10 10 10 10 10 10 10
22 21 21 21 20 20 20 19 19 18 18 17 16 16 15 15 14 14 13 13 12 12 12 12 11 11 11 11 11 10 10 10 10 10 10 10 10 10 10 9 9 9 9
22 22 21 21 21 20 20 19 19 18 18 17 17 16 15 15 14 14 13 13 12 12 12 12 11 11 11 11 10 10 10 10 10 10 10 10 10 9 9 9 9 9 9
22 22 22 21 21 20 20 19 19 18 18 17 17 16 15 15 14 14 14 13 13 12 12 12 11 11 11 11 10 10 10 10 10 10 10 10 10 9 9 9 9 9 9
22 22 22 22 21 21 20 20 19 19 18 17 17 16 16 15 15 14 14 13 13 12 12 12 12 11 11 11 10 10 10 10 10 9 9 9 9 9 9 9 9 8 8
23 23 22 22 22 21 20 20 19 18 18 17 17 16 16 15 15 14 14 13 13 13 12 12 12 11 11 11 10 10 10 10 10 9 9 9 9 9 9 8 8 9 9
24 23 23 22 22 21 20 20 19 18 18 17 17 16 16 15 15 14 14 14 13 13 12 12 12 12 11 11 11 10 10 10 10 9 9 9 9 9 8 8 8 8 9
24 23 23 22 21 21 20 20 19 18 18 17 17 16 16 15 15 15 14 14 13 13 12 12 12 12 11 11 11 10 10 10 10 10 9 9 9 9 8 8 8 8 8
24 23 23 22 21 21 20 19 19 19 18 17 17 16 16 15 15 14 14 13 13 13 12 12 12 12 11 11 11 10 10 10 10 10 9 9 9 8 8 8 8 8 8
23 23 22 22 21 20 20 19 19 19 18 17 16 16 16 15 15 14 14 13 13 13 12 12 12 12 11 11 11 11 10 10 10 10 9 9 9 8 8 8 8 8 8
23 22 22 21 21 20 20 19 19 18 18 17 16 16 16 15 15 14 14 13 13 13 12 12 12 12 12 11 11 11 10 10 10 9 9 9 9 8 8 8 8 8 8
22 22 21 21 20 20 19 19 18 18 17 17 16 16 15 15 15 14 14 13 13 13 12 12 12 12 12 11 11 11 10 10 10 9 9 9 9 9 9 8 8 8 8
21 20 20 20 19 19 18 18 17 17 17 16 16 15 15 15 14 14 14 13 13 13 12 12 12 12 12 12 11 11 10 10 10 9 9 9 9 9 9 8 8 8 8
19 19 19 18 18 18 17 17 17 16 16 16 15 15 14 14 14 13 13 13 13 13 12 12 12 12 12 11 11 11 10 10 10 9 9 9 9 9 9 8 8 8 8

GEFSMW_850_meantemp_108.txt.gz
Temperature
17 17 17 18 17 17 17 18 17 17 17 17 17 17 17 17 16 16 16 16 16 16 15 15 15 15 15 15 15 14 14 14 14 14 15 15 15 15 15 15 15 16 16
17 17 17 17 17 17 17 17 17 17 17 17 17 17 17 17 16 16 16 16 16 15 15 15 15 15 14 14 14 14 14 14 14 14 14 14 15 14 15 15 15 15 15
17 17 17 17 17 17 17 18 17 17 17 17 17 17 17 16 16 16 16 16 15 15 15 15 14 14 14 14 14 14 14 13 13 13 13 13 13 14 14 14 14 14 14
18 18 18 18 18 18 18 18 17 17 17 17 17 17 17 16 16 16 16 15 15 15 15 14 14 14 14 13 13 13 13 13 13 13 12 12 12 12 13 14 14 14 14
18 18 18 18 18 18 18 18 17 17 17 17 17 16 16 16 16 16 15 15 15 15 14 14 14 13 13 13 13 13 12 12 12 12 12 12 12 12 12 12 13 13 14
18 18 18 18 18 18 18 18 17 17 17 17 16 16 16 16 16 15 15 15 14 14 14 14 13 13 13 13 12 12 12 12 12 12 11 11 11 11 11 11 12 12 13
18 18 18 18 18 18 18 18 17 17 17 17 16 16 16 15 15 15 15 14 14 14 13 13 13 13 12 12 12 12 12 11 11 11 11 11 11 11 11 11 11 11 12
19 19 19 19 18 18 18 18 18 18 17 17 16 16 15 15 15 15 14 14 14 13 13 13 13 12 12 12 12 11 11 11 11 11 11 11 11 10 10 10 10 10 11
19 19 19 19 19 19 18 18 18 18 17 17 16 16 15 15 15 14 14 14 13 13 13 13 12 12 12 12 11 11 11 11 11 11 10 10 10 10 10 10 10 10 10
20 20 20 20 20 19 19 18 18 18 17 17 16 16 15 15 14 14 14 14 13 13 13 12 12 12 12 11 11 11 11 11 11 10 10 10 10 10 10 10 10 10 10
21 20 20 20 20 19 19 19 18 18 17 17 16 16 15 15 14 14 14 14 13 13 13 12 12 12 12 11 11 11 11 11 11 10 10 10 10 10 10 10 10 10 9
21 21 21 20 20 20 19 19 19 18 17 17 16 16 15 15 15 14 14 14 13 13 13 12 12 12 12 12 11 11 11 11 11 10 10 10 10 10 10 10 10 9 9
22 21 21 21 21 20 20 19 19 18 18 17 16 16 15 15 15 14 14 14 13 13 13 13 12 12 12 12 11 11 11 11 11 10 10 10 10 10 10 10 10 9 9
22 22 22 21 21 21 20 20 19 19 18 17 17 16 16 16 15 15 14 14 14 13 13 13 13 12 12 12 12 11 11 11 11 10 10 10 10 10 10 9 9 9 9
21 22 22 22 22 21 21 20 19 19 18 17 17 17 16 16 15 15 15 14 14 14 13 13 13 12 12 12 12 11 11 11 11 10 10 10 10 10 9 9 9 9 9
22 22 22 22 22 21 21 20 20 19 18 18 17 17 16 16 16 15 15 14 14 14 13 13 13 13 12 12 12 11 11 11 11 11 10 10 10 10 9 9 9 9 9
23 23 23 23 22 22 21 21 20 19 19 18 17 17 17 16 16 15 15 15 14 14 13 13 13 13 12 12 12 11 11 11 11 10 10 10 10 10 9 9 9 9 8
23 23 23 23 22 22 21 21 20 19 19 18 17 17 17 16 16 15 15 15 14 14 13 13 13 13 12 12 12 11 11 11 11 11 10 10 10 10 9 9 9 9 9
23 23 23 23 22 22 21 20 20 19 18 18 18 17 17 16 16 16 15 15 14 14 13 13 13 12 12 12 12 11 11 11 11 11 10 10 10 10 9 9 9 9 9
23 23 22 22 22 21 21 20 19 19 19 18 18 17 17 16 16 16 15 15 14 14 13 13 13 12 12 12 12 11 11 11 11 11 10 10 10 10 9 9 9 9 9
22 22 22 22 22 21 20 20 19 19 19 18 18 17 17 16 16 16 15 15 14 14 13 13 13 12 12 12 12 11 11 11 11 11 11 10 10 10 9 9 9 9 9
22 22 22 21 21 20 19 19 19 19 18 18 17 17 17 16 16 15 15 14 14 13 13 13 13 13 12 12 12 11 11 11 11 11 10 10 10 10 9 9 9 9 8
21 21 21 20 20 19 19 19 18 18 17 17 17 16 16 16 15 15 14 14 14 13 13 13 13 13 12 12 12 11 11 11 11 11 10 10 10 10 9 9 9 9 8
20 20 20 19 19 19 18 18 17 17 17 17 16 16 15 15 15 14 14 14 13 13 13 13 13 12 12 12 12 12 11 11 11 11 10 10 10 10 9 9 9 9 9
19 19 19 18 18 17 17 17 16 16 16 16 15 15 15 15 14 14 14 14 13 13 13 12 12 12 12 12 12 11 11 11 11 10 10 10 10 10 10 9 9 9 9
17 17 17 17 17 16 16 16 16 15 15 15 15 14 14 14 14 13 13 13 13 12 12 12 12 12 12 11 11 11 11 11 11 10 10 10 10 10 10 9 9 9 9

GEFSMW_850_meantemp_114.txt.gz
Temperature
18 17 17 17 17 17 17 17 17 17 17 17 17 17 17 16 16 16 16 16 16 16 16 15 15 15 15 15 15 15 15 15 15 15 16 16 16 15 15 15 15 15 15
17 17 17 17 17 17 17 17 17 17 17 17 17 17 17 16 16 16 16 16 16 16 15 15 15 15 15 14 14 14 14 15 14 15 16 17 17 15 15 15 15 15 15
18 17 17 17 17 17 17 17 17 17 17 17 17 17 17 16 16 16 16 16 16 15 15 15 15 15 14 14 14 14 14 14 14 14 15 16 17 16 16 15 14 14 14
19 18 17 17 17 17 17 17 17 17 17 17 17 17 17 17 16 16 16 16 15 15 15 15 14 14 14 14 14 13 13 13 14 14 13 14 14 15 16 15 15 14 14
19 18 18 17 17 17 17 17 17 17 17 17 17 16 16 16 16 16 16 15 15 15 15 14 14 14 14 13 13 13 13 13 13 14 14 14 13 14 14 15 15 15 14
19 19 18 18 17 17 17 17 17 17 17 17 17 16 16 16 16 16 15 15 15 14 14 14 14 13 13 13 13 13 13 12 12 13 13 13 14 14 14 15 14 15 14
20 19 18 18 17 17 17 17 17 17 17 17 17 16 16 16 16 15 15 15 15 14 14 14 13 13 13 13 13 12 12 12 12 12 12 12 13 13 13 13 14 14 14
20 19 19 18 18 17 17 17 17 17 17 17 17 16 16 16 15 15 15 15 15 14 14 13 13 13 13 13 12 12 12 12 11 12 12 12 12 12 12 13 13 14 14
21 20 19 19 18 18 17 17 17 17 17 17 17 16 16 16 15 15 15 14 14 14 14 13 13 13 13 12 12 12 12 11 11 12 11 11 12 12 12 12 12 13 13
21 21 20 19 19 18 18 17 17 17 17 17 17 16 16 16 15 15 14 14 14 14 13 13 13 13 12 12 12 12 12 11 11 11 11 11 11 11 11 11 12 12 12
22 21 20 20 19 19 18 18 17 17 17 17 17 16 16 15 15 15 14 14 14 14 13 13 13 13 12 12 12 12 12 11 11 11 11 11 11 11 11 11 11 11 11
22 22 21 20 20 19 19 18 18 18 18 17 17 16 16 16 15 15 14 14 14 14 13 13 13 13 12 12 12 12 12 12 11 11 11 11 11 11 11 11 11 11 11
23 22 21 21 20 19 19 19 18 18 18 17 17 17 16 16 15 15 15 14 14 14 13 13 13 13 13 12 12 12 12 12 11 11 11 11 11 11 11 10 11 11 11
22 22 21 21 20 20 19 19 18 18 18 18 17 17 17 16 16 15 15 15 14 14 14 13 13 13 13 12 12 12 12 12 11 11 11 11 11 11 10 10 10 10 10
22 22 21 21 20 20 19 19 19 18 18 18 18 17 17 16 16 15 15 15 14 14 14 14 13 13 13 13 13 12 12 12 12 11 11 11 11 11 11 11 10 10 10
23 22 21 21 20 20 20 19 19 19 19 18 18 17 17 17 16 16 15 15 15 14 14 14 14 13 13 13 13 13 12 12 12 12 11 11 11 11 11 11 11 10 10
23 22 22 21 21 20 20 19 19 19 19 19 18 18 17 17 17 16 15 15 15 15 14 14 14 14 14 14 14 13 13 12 12 12 11 11 12 11 10 10 10 10 10
23 22 22 21 21 20 20 19 19 19 19 19 18 18 18 17 17 16 16 15 15 15 15 14 14 14 14 14 14 13 13 12 12 12 12 11 11 11 11 10 10 10 10
22 22 21 21 21 20 20 19 19 19 19 18 18 18 17 17 17 16 16 16 15 15 15 15 14 14 14 14 14 13 13 12 12 12 12 12 11 11 11 11 10 10 10
21 21 21 21 20 20 20 19 19 19 18 18 18 18 17 17 17 17 16 16 15 15 14 14 14 14 14 14 14 13 13 12 12 12 12 12 12 12 11 11 10 10 10
20 20 20 20 20 20 20 19 19 19 19 18 18 17 17 17 16 16 16 15 15 14 14 14 14 14 14 14 14 13 13 12 12 12 12 12 12 12 11 11 10 10 10
19 19 19 19 19 19 19 19 18 18 17 17 17 17 17 16 16 15 15 15 15 14 14 14 14 14 14 14 14 13 13 13 12 12 12 12 12 11 11 11 11 11 10
18 18 18 18 18 18 18 18 17 17 17 17 16 16 16 15 15 15 15 15 14 14 14 14 14 14 14 13 13 13 13 12 12 12 11 11 11 11 11 11 11 11 10
17 17 17 17 17 17 17 17 17 17 16 16 16 16 15 15 15 15 14 14 14 14 14 14 14 13 13 13 12 12 12 12 12 11 11 11 11 11 11 11 10 10 10
16 16 16 16 16 17 16 16 16 16 16 15 15 15 15 14 14 14 14 14 14 13 13 13 13 13 13 12 12 12 11 11 11 11 10 11 11 11 11 11 11 10 10
15 15 15 15 15 15 15 15 15 15 15 15 14 14 14 13 13 13 13 13 13 13 13 13 13 12 12 12 12 11 11 11 11 10 10 11 11 11 11 11 11 11 11

GEFSMW_850_meantemp_120.txt.gz
Temperature
19 19 18 18 18 18 18 18 18 18 18 18 17 17 17 17 17 17 17 17 17 17 16 16 16 16 16 16 16 16 16 16 16 16 17 17 17 17 17 17 17 17 16
19 19 18 18 18 18 18 18 18 18 18 18 18 17 17 17 17 17 17 17 16 16 16 16 16 16 16 16 15 16 16 16 16 16 16 17 17 17 17 17 17 16 16
20 19 18 18 18 18 17 18 17 17 17 17 17 17 17 17 17 17 17 16 16 16 16 16 16 16 15 15 15 15 15 15 16 16 16 16 16 17 17 17 17 16 16
20 19 18 18 18 18 17 17 17 17 17 17 17 17 17 17 17 17 17 16 16 16 16 16 16 16 15 15 15 15 15 15 15 15 16 16 16 16 16 16 16 16 16
21 19 19 18 18 18 18 17 17 18 17 17 17 18 18 17 17 17 17 16 16 16 16 15 15 15 15 15 15 15 15 15 15 15 15 15 16 16 16 16 16 16 16
21 20 19 19 18 18 18 17 18 18 17 17 17 17 17 17 17 17 17 16 16 16 16 15 15 15 15 15 15 15 14 14 15 15 15 15 15 15 15 15 16 16 16
21 20 20 19 18 18 18 17 18 18 17 17 17 17 17 17 17 17 17 16 16 16 16 15 15 15 15 14 14 14 14 14 14 14 14 14 14 15 15 15 15 15 15
22 21 20 19 19 18 18 18 18 18 17 17 17 17 17 17 17 17 17 17 16 16 16 16 15 15 14 14 14 14 14 14 14 14 14 14 14 14 14 14 14 14 15
23 22 21 20 19 19 18 18 18 18 18 17 17 17 17 17 17 17 17 16 16 16 16 15 15 14 14 14 14 14 14 14 13 13 14 14 14 14 14 14 14 14 14
23 22 21 21 20 19 18 18 18 18 18 17 18 17 17 17 17 17 17 16 16 16 16 15 15 14 14 14 14 14 14 13 13 13 13 13 13 13 13 13 13 13 13
24 23 22 21 20 20 19 18 18 18 18 18 17 17 17 17 17 17 16 16 16 16 16 15 15 14 14 14 14 14 14 13 13 13 13 13 13 13 13 13 13 13 13
24 23 22 22 21 20 19 19 18 18 18 18 18 17 17 17 17 16 16 16 16 16 15 15 15 15 14 14 14 14 14 14 13 13 13 13 13 13 13 13 13 13 13
25 24 23 22 21 21 20 19 19 18 18 18 18 17 17 17 16 16 16 16 16 16 15 15 15 15 14 14 14 14 14 13 13 13 13 13 13 13 13 13 12 12 12
25 24 23 22 22 21 20 20 19 19 18 18 18 17 17 17 17 16 16 16 16 16 15 15 15 15 15 14 14 14 14 14 13 13 13 13 13 13 13 12 12 12 12
24 24 23 23 22 21 21 20 20 19 19 18 18 18 17 17 17 16 16 16 16 16 16 15 15 15 15 15 14 14 14 14 14 14 13 13 13 13 13 12 12 12 12
24 24 23 22 22 22 21 21 20 20 19 19 18 18 17 17 17 16 16 16 16 16 15 15 15 15 15 15 15 15 15 14 14 14 14 13 13 13 13 13 13 12 12
25 24 23 22 22 22 21 21 21 20 20 19 19 18 18 17 17 17 16 16 16 16 16 15 15 15 15 15 15 15 15 15 14 14 14 13 13 13 13 13 13 12 12
24 24 23 23 22 22 21 21 20 20 20 19 19 18 18 17 17 16 16 16 16 16 16 15 15 15 15 15 15 15 15 15 15 14 14 14 14 13 13 13 13 12 12
23 23 23 23 22 22 21 21 20 20 19 19 19 18 18 17 17 16 16 16 16 16 16 15 15 15 15 15 15 15 15 15 15 15 14 14 14 14 13 13 13 13 12
22 22 22 22 22 22 21 21 20 20 19 19 18 18 18 17 17 17 16 16 16 16 16 15 15 15 15 15 15 15 15 14 14 14 14 14 14 14 13 13 13 13 13
22 22 22 21 21 21 21 20 20 19 19 19 18 18 18 17 17 17 16 16 16 15 15 15 15 15 15 15 15 15 14 14 14 14 14 14 14 13 13 13 13 13 12
21 21 21 20 20 20 20 20 19 19 19 18 18 18 17 17 16 16 16 15 15 15 15 15 15 15 15 15 15 15 14 14 14 14 13 13 13 13 13 13 13 12 12
19 19 19 19 19 19 19 19 18 18 18 18 17 17 17 16 16 16 15 15 15 14 14 14 14 14 14 14 14 14 14 14 13 13 13 13 13 12 12 12 12 12 12
18 18 18 18 18 18 18 17 17 17 17 17 16 16 16 16 16 15 15 15 14 14 14 14 14 14 14 14 14 14 13 13 13 12 12 12 12 12 12 12 12 12 12
17 17 17 17 16 16 16 16 16 16 16 16 16 16 15 15 15 15 15 14 14 14 14 14 14 14 14 14 13 13 13 13 12 12 12 12 11 11 12 12 12 12 11
16 16 16 15 15 15 15 15 15 15 15 15 15 15 15 15 14 14 14 14 14 14 14 14 14 14 14 13 13 13 12 12 12 11 11 11 11 11 11 11 11 12 12

GEFSMW_850_meantemp_126.txt.gz
Temperature
19 19 18 18 18 18 18 18 18 18 18 18 18 17 17 17 17 17 17 17 17 17 17 16 16 16 16 16 16 16 16 16 16 16 16 16 16 16 16 16 16 16 16
18 18 18 18 17 17 17 18 17 18 18 18 18 18 18 17 17 17 17 17 17 17 16 16 16 16 16 16 16 16 16 16 16 16 16 16 16 16 16 16 16 16 16
18 18 18 17 17 17 17 17 17 17 18 18 17 17 17 17 17 17 17 17 16 16 16 16 16 16 16 16 16 16 15 16 16 16 16 16 16 16 16 16 16 16 16
18 18 18 18 18 17 17 17 18 17 17 17 17 17 17 17 17 17 17 16 16 16 16 16 16 16 15 15 15 15 15 15 15 15 15 16 16 16 16 16 16 16 16
19 18 18 18 18 18 17 17 17 17 17 17 17 17 17 17 17 17 16 16 16 16 16 16 16 16 15 15 15 15 15 15 15 15 15 15 15 15 15 15 15 15 15
19 18 18 18 17 17 17 17 17 17 17 17 17 17 17 17 17 17 16 16 16 16 16 16 16 15 15 15 15 15 15 15 15 15 15 15 15 15 15 15 15 15 15
19 18 18 18 18 17 17 17 17 17 17 17 17 17 17 17 17 17 17 16 16 16 16 16 15 15 15 15 15 15 15 15 15 15 14 14 14 14 15 15 15 15 15
19 19 19 18 18 18 17 17 17 17 17 17 17 17 17 17 17 17 17 17 16 16 16 16 16 15 15 15 15 15 14 14 14 14 14 14 14 14 14 14 14 14 14
19 19 19 19 18 18 18 18 17 17 17 17 17 17 17 17 17 17 17 17 16 16 16 16 16 15 15 15 15 14 14 14 14 14 14 14 14 14 14 14 14 14 14
19 19 19 19 19 18 18 18 18 18 18 17 17 17 17 17 17 17 17 17 16 16 16 16 15 15 15 15 15 14 14 14 14 14 14 14 14 14 14 13 13 13 13
20 19 19 19 19 19 18 18 18 18 18 18 17 17 17 17 17 17 17 17 16 16 16 16 15 15 15 15 15 14 14 14 14 14 14 14 14 13 13 13 13 13 13
20 20 20 19 19 19 18 18 18 18 18 18 18 17 17 17 17 17 17 16 16 16 16 16 15 15 15 15 15 15 14 14 14 14 14 14 13 13 13 13 13 13 13
21 20 20 19 19 19 19 18 18 18 18 18 18 18 17 17 17 17 17 16 16 16 16 16 16 15 15 15 15 15 14 14 14 14 14 14 14 13 13 13 13 13 13
21 20 20 20 19 19 19 19 19 19 18 18 18 18 18 17 17 17 17 16 16 16 16 16 16 15 15 15 15 15 14 14 14 14 14 14 14 14 14 13 13 13 13
20 20 20 20 20 20 19 19 19 19 18 18 18 18 18 17 17 17 17 17 16 16 16 16 16 16 15 15 15 15 15 14 14 14 14 14 14 14 14 13 13 13 13
20 20 20 20 20 20 20 20 20 19 19 19 18 18 18 18 17 17 17 17 16 16 16 16 16 16 16 15 15 15 15 15 15 14 14 14 14 14 14 14 13 13 13
21 21 21 21 20 20 20 20 20 20 19 19 19 18 18 18 18 17 17 17 16 16 16 16 16 16 16 15 15 15 15 14 14 14 14 14 14 14 14 14 13 13 13
20 21 21 21 21 21 20 20 20 20 19 19 19 18 18 18 18 17 17 17 17 16 16 16 16 16 16 15 15 15 14 14 14 14 14 14 14 14 14 14 13 13 13
20 21 21 21 21 21 21 20 20 20 19 19 19 18 18 18 18 17 17 17 17 16 16 16 16 15 15 15 15 15 14 14 14 14 14 14 14 14 14 13 13 13 13
20 20 20 20 20 20 20 20 20 19 19 19 19 19 18 18 18 17 17 17 16 16 16 16 16 15 15 15 15 14 14 14 14 14 14 14 14 14 13 13 13 13 13
19 19 19 19 19 19 20 19 19 19 19 19 18 18 18 18 17 17 17 17 16 16 15 15 15 15 15 15 15 14 14 14 14 14 14 14 14 13 13 13 13 13 12
18 18 18 18 18 19 19 18 18 18 18 18 18 18 17 17 17 17 16 16 16 16 15 15 15 15 15 14 14 14 14 14 14 14 14 14 13 13 13 12 12 12 12
17 17 17 17 17 17 18 17 17 17 17 17 17 17 17 16 16 16 16 16 15 15 15 14 14 15 14 14 14 14 14 13 13 13 13 13 13 12 12 12 12 12 11
16 16 16 16 16 16 16 16 16 16 16 16 16 16 16 16 15 15 15 15 15 14 14 14 14 14 14 14 14 13 13 13 13 13 12 12 12 12 12 12 12 11 11
16 16 16 15 15 15 15 15 15 15 15 15 15 15 15 15 15 15 14 14 14 14 14 14 14 14 13 13 13 13 13 12 12 12 12 12 12 11 11 11 11 11 11
15 15 15 14 14 14 14 14 14 15 14 14 14 14 14 14 14 14 13 13 13 13 13 13 13 13 13 12 12 12 12 12 12 11 11 11 11 11 11 11 11 11 11

GEFSMW_850_meantemp_132.txt.gz
Temperature
18 18 18 18 18 17 17 17 17 17 17 17 17 17 17 17 17 17 17 17 17 16 16 16 16 16 16 16 16 16 16 16 16 16 16 16 16 16 16 16 16 16 16
18 18 18 18 17 17 17 17 17 17 17 17 17 17 17 17 17 17 16 16 16 16 16 16 16 16 16 16 16 15 15 16 16 15 16 15 15 16 16 16 16 16 16
18 18 17 17 17 17 17 17 17 17 17 17 17 16 16 17 16 16 16 16 16 16 16 16 16 16 15 15 15 15 15 15 15 15 16 16 16 15 15 16 16 16 15
18 18 18 17 17 17 17 17 16 16 17 17 16 17 17 17 17 17 16 16 16 16 16 16 16 15 15 15 15 15 15 15 15 15 15 16 16 16 15 15 15 15 15
18 18 18 18 17 17 17 17 16 16 16 17 17 16 17 17 17 17 16 16 16 16 16 16 15 15 15 15 15 15 15 15 15 15 15 15 15 15 15 15 15 15 15
18 17 17 17 17 17 17 16 16 16 16 16 16 16 17 17 17 17 16 16 16 16 16 15 15 15 15 15 15 15 15 15 15 15 15 15 15 15 15 15 15 15 15
18 17 17 17 17 17 17 17 16 16 16 16 16 17 17 17 17 17 17 16 16 16 16 15 15 15 15 15 15 15 15 15 15 15 15 15 15 15 15 15 15 15 15
18 18 18 17 17 17 17 17 17 17 17 17 17 17 17 17 17 17 17 16 16 16 16 15 15 15 15 15 14 14 14 14 14 14 14 14 14 14 14 14 14 14 14
18 18 18 18 18 18 17 17 17 17 17 17 17 16 16 17 17 17 16 16 16 16 15 15 15 15 15 15 14 14 14 14 14 14 14 14 14 14 14 14 14 14 14
18 18 18 18 18 18 18 17 17 17 17 17 17 17 16 16 16 16 16 16 16 16 16 15 15 15 15 15 14 14 14 14 14 14 14 14 14 14 14 14 14 14 13
19 19 19 19 18 18 18 17 17 17 17 17 17 17 17 17 16 16 16 16 16 16 16 16 15 15 15 15 14 14 14 14 14 14 14 14 13 13 13 13 13 13 13
19 19 19 19 18 18 18 18 18 17 17 17 17 17 17 17 16 16 16 16 16 16 16 16 15 15 15 15 14 14 14 14 14 14 14 13 13 13 13 13 13 13 13
19 19 19 19 19 18 18 18 18 18 17 17 17 17 17 17 17 17 16 16 16 16 16 16 15 15 15 15 15 14 14 14 14 14 14 14 13 13 13 13 13 13 13
19 19 19 19 19 19 19 18 18 18 18 17 17 17 17 17 17 17 17 16 16 16 16 16 16 15 15 15 15 14 14 14 14 14 14 14 14 13 13 13 13 13 13
19 19 19 19 19 19 19 19 19 18 18 18 18 18 17 17 17 17 17 16 16 16 16 16 16 15 15 15 15 14 14 14 14 14 14 14 13 13 13 13 13 13 13
19 19 19 19 19 19 19 19 19 19 18 18 18 18 18 17 17 17 17 16 16 16 16 16 16 15 15 15 15 15 14 14 14 14 14 14 13 13 13 13 13 13 13
19 19 19 20 20 20 20 20 19 19 19 18 18 18 18 17 17 17 17 17 16 16 16 16 16 15 15 15 15 14 14 14 14 14 14 14 14 14 13 13 13 13 13
18 19 19 19 20 20 19 19 19 19 19 18 18 18 18 18 17 17 17 17 17 16 16 16 16 15 15 15 15 14 14 14 14 14 14 14 14 14 13 13 13 13 13
18 19 19 19 19 19 19 19 19 19 18 18 18 18 18 18 17 17 17 17 17 16 16 16 16 15 15 15 15 14 14 14 14 14 14 14 14 13 13 13 13 13 13
17 18 19 19 19 19 19 19 18 18 18 18 18 18 18 18 18 17 17 17 17 16 16 16 16 15 15 15 14 14 14 14 14 14 14 14 13 13 13 12 12 13 13
17 17 18 18 18 18 18 18 18 18 18 18 18 17 17 17 17 17 17 17 16 16 16 16 15 15 15 14 14 14 14 14 14 14 14 14 13 13 13 12 12 12 12
16 16 17 17 17 17 17 17 17 17 17 17 17 17 17 16 16 16 16 16 16 15 15 15 15 15 15 14 14 14 13 13 13 13 13 13 13 13 12 12 12 12 12
15 15 16 16 16 16 17 16 16 16 16 16 16 16 16 15 15 15 15 15 15 15 15 14 14 14 14 14 14 13 13 13 13 13 13 13 12 12 12 12 12 11 11
14 14 15 15 15 15 15 15 15 15 15 15 15 15 15 15 15 14 14 14 14 14 14 14 14 14 13 13 13 13 13 13 12 12 12 12 12 12 11 11 11 11 11
13 14 14 14 14 14 14 14 14 14 14 14 14 14 14 14 14 14 14 14 14 13 13 13 13 13 13 13 13 12 12 12 12 12 11 11 11 11 11 11 11 10 10
13 13 13 13 13 13 13 13 14 14 14 14 14 14 13 13 13 13 13 13 13 13 12 12 12 12 12 12 12 12 11 11 11 11 11 11 10 10 10 10 10 10 10